Regional Weather Roundup
Issued by NWS

Home | Current Version | Previous Version | Text Only | Print | Product List | Glossary On
Versions: 1 2 3 4 5 6 7 8 9 10 11 12 13 14 15 16 17 18 19 20 21 22 23 24 25 26 27 28 29 30 31 32 33 34 35 36 37 38 39 40 41 42 43 44 45 46 47 48 49 50
991
ASUS43 KMPX 260510
RWRMN
WEATHER ROUNDUP FOR MINNESOTA
NATIONAL WEATHER SERVICE TWIN CITIES/CHANHASSEN MN
1200 AM CDT THU MAY 26 2016


NOTE: "FAIR" INDICATES FEW OR NO CLOUDS BELOW 12,000 FEET WITH NO
SIGNIFICANT WEATHER AND/OR OBSTRUCTIONS TO VISIBILITY. N/A MEANS
CURRENT SKY AND/OR WEATHER CONDITIONS ARE NOT AVAILABLE.

MNZ060>063-068>070-260600-
   Twin Cities Metro

CITY           SKY/WX    TMP DP  RH WIND       PRES   REMARKS
TWIN CITIES    PTCLDY    67  62  84 E10       29.82F
ST PAUL        PTCLDY    66  62  87 SE3       29.83S
CRYSTAL        CLEAR     65  60  84 CALM      29.81F
BLAINE         CLEAR     64  64 100 SE6       29.82F
EDEN PRAIRIE   CLEAR     68  63  84 E6        29.81F
SOUTH ST PAUL  CLEAR     66  63  89 CALM      29.84S
LAKE ELMO      MOCLDY    63  63 100 CALM      29.85S
$$
MNZ001>005-007-008-013>017-022>024-027-028-260600-
   Northwest Minnesota

CITY           SKY/WX    TMP DP  RH WIND       PRES   REMARKS
BEMIDJI        CLOUDY    58  55  88 SE14G25   29.78S
HALLOCK        CLOUDY    61  59  94 S9        29.64R
ROSEAU         CLOUDY    61  54  77 SE15      29.68F
WARROAD        CLOUDY    59  55  88 SE18      29.71F
THIEF RVR FALL CLOUDY    59  55  88 SW14      29.73R
CROOKSTON      CLOUDY    59  57  94 SW8       29.72F
FOSSTON        PTCLDY    55  55 100 S6        29.75F
DETROIT LAKES  CLOUDY    61  59  94 S10       29.76F THUNDER
MOORHEAD       CLOUDY    59  54  82 CALM      29.75F
PARK RAPIDS    CLOUDY    58  55  90 SE13      29.79S
MAHNOMEN       CLOUDY    58  57  96 CALM      29.74F THUNDER
$$
MNZ006-009>011-018-025>026-260600-
   North Central Minnesota

CITY           SKY/WX    TMP DP  RH WIND       PRES   REMARKS
BAUDETTE       CLOUDY    58  54  86 SE14      29.75S
FLAG ISLAND    CLOUDY    55  55 100 E9G18     29.73F
INTL FALLS     CLOUDY    60  48  64 SE9       29.79F
WASKISH        MOCLDY    57  54  88 SE7       29.77S
BIG FORK       MOCLDY    57  52  82 S5        29.82S
LONGVILLE      CLOUDY    55  54  94 SE8       29.81F
GRAND RAPIDS   CLOUDY    54  50  86 E12       29.84S
CRANE LAKE     CLOUDY    57  48  72 CALM      29.84S
ORR            CLOUDY    55  46  71 CALM      29.81S
COOK           MOCLDY    55  50  82 SE5       29.84S
WALKER         CLOUDY    56  53  89 SE10      29.80F
$$
MNZ012-019>021-037-260600-
   Northeast Minnesota

CITY           SKY/WX    TMP DP  RH WIND       PRES   REMARKS
DULUTH         CLOUDY    47  45  93 E9        29.86S
ELY            CLEAR     52  46  82 E7        29.84F
HIBBING        MOCLDY    49  49 100 S3        29.84S
EVELETH        PTCLDY    52  50  93 CALM      29.86R
DULUTH HARBOR  CLOUDY    45  45 100 NE15      29.88F
TWO HARBORS    CLEAR     50  45  81 NE7       29.85F
SILVER BAY     CLOUDY    48  46  93 N8        29.87F
GRAND MARAIS     N/A     51  46  83 NE12      29.90F
G MARAIS ARPRT CLOUDY    50  45  81 E10       29.91S
$$
MNZ029>031-032-039>041-046>048-054>057-064-260600-
   West Central Minnesota

CITY           SKY/WX    TMP DP  RH WIND       PRES   REMARKS
FERGUS FALLS   MOCLDY    64  61  88 CALM      29.71F
WHEATON        CLOUDY    64  57  77 W5        29.76S
MORRIS         CLOUDY    70  46  43 S18G29    29.74F
ALEXANDRIA     CLOUDY    68  56  65 S14G25    29.80R
ELBOW LAKE     FAIR      65  58  76 S15       29.75F
WADENA         CLOUDY    57  57 100 SE10      29.77F
GLENWOOD       MOCLDY    64  52  63 SW13      29.80S
APPLETON       CLOUDY    61  54  77 CALM      29.75F
BENSON         CLOUDY    61  52  72 E2        29.76F
ORTONVILLE     CLOUDY    63  48  59 S3        29.76F
MADISON        CLOUDY    61  54  77 SW7       29.76F
WILLMAR        FAIR      66  52  59 W12       29.82F
$$
MNZ033>034-036-042>043-049>051-058-059-260600-
   Central Minnesota

CITY           SKY/WX    TMP DP  RH WIND       PRES   REMARKS
ST CLOUD       PTCLDY    61  60  97 E6        29.80F
SAUK CENTRE    FAIR      60  59  96 E7        29.81S
PAYNESVILLE    CLOUDY    65  64  97 E3        29.81F
AITKIN         CLOUDY    55  52  88 E6        29.82F
PINE RIVER     CLOUDY    55  55 100 SE8       29.84F
BRAINERD       CLOUDY    55  55 100 SE7       29.82F
STAPLES        PTCLDY    55  55 100 SE5       29.80S
LONG PRAIRIE   FAIR      59  57  94 E9        29.80F
LITTLE FALLS   MOCLDY    57  55  94 S6        29.82S
LITCHFIELD     PTCLDY    68  66  94 CALM      29.81F
BUFFALO        CLEAR     64  61  90 E7        29.82F
MAPLE LAKE     PTCLDY    65  64  95 E3        29.82F
HUTCHINSON     CLEAR     66  63  89 CALM      29.81F
$$
MNZ037-044-045-052-053-260600-
   East Central Minnesota

CITY           SKY/WX    TMP DP  RH WIND       PRES   REMARKS
PRINCETON      CLOUDY    63  61  94 E5        29.82F
MORA           FOG       54  52  94 CALM      29.85F VSB 1/2
CAMBRIDGE      LGT RAIN  64  55  72 S3        29.80F
RUSH CITY      CLOUDY    59  58  96 SE5       29.83F FOG
MOOSE LAKE     CLOUDY    45  45 100 NE5       29.85R FOG
HINCKLEY       FOG       55  55 100 CALM      29.84S VSB 1/2
CLOQUET        CLOUDY    45  45 100 E8        29.87R
MCGREGOR       CLOUDY    52  50  93 SE7       29.84F
$$
MNZ071>073-080-081-089-090-097-098-260600-
   Southwest Minnesota

CITY           SKY/WX    TMP DP  RH WIND       PRES   REMARKS
MONTEVIDEO     CLOUDY    64  46  52 CALM      29.78F
GRANITE FALLS  CLOUDY    66  53  61 CALM      29.78F
CANBY          CLOUDY    67  53  61 SW7       29.78F
MARSHALL       LGT RAIN  65  53  65 SW12      29.79F
REDWOOD FALLS  LGT RAIN  68  47  46 NW13      29.80F
OLIVIA         CLOUDY    68  46  45 NW9G18    29.81S
PIPESTONE      CLOUDY    66  48  52 SE5       29.80F
WINDOM         MOCLDY    70  61  73 CALM      29.82F THUNDER
WORTHINGTON    TSTM      68  59  73 NW22G31   29.86R
JACKSON        CLOUDY    68  59  73 S5        29.83F
TRACY          CLOUDY    66  54  64 SW8       29.84F
SLAYTON        RAIN      64  53  68 W18G26    29.87S
$$
MNZ065>067-074>077-082>085-091>093-260600-
   South Central Minnesota

CITY           SKY/WX    TMP DP  RH WIND       PRES   REMARKS
MANKATO        CLOUDY    66  57  72 SE8       29.81F
NEW ULM        TSTM      70  61  73 N3        29.80F
ST JAMES       CLOUDY    63  55  77 SE6       29.80F THUNDER
FAIRMONT       CLOUDY    64  57  77 SE12      29.83F THUNDER
GLENCOE        CLEAR     68  66  94 E5        29.80F
FARIBAULT      PTCLDY    63  61  94 CALM      29.84S
OWATONNA       MOCLDY    66  63  88 SE8       29.84S
WASECA         MOCLDY    63  59  88 SE8       29.85S
ALBERT LEA     PTCLDY    70  63  78 S6        29.84S
$$
MNZ078>079-086>088-094>096-260600-
   Southeast Minnesota

CITY           SKY/WX    TMP DP  RH WIND       PRES   REMARKS
ROCHESTER      CLEAR     64  63  96 S8        29.86S
RED WING       PTCLDY    64  63  94 E6        29.83S
STANTON        CLEAR     66  63  91 CALM      29.82S
DODGE CENTER   PTCLDY    66  63  88 S10       29.86S
WINONA         PTCLDY    63  63 100 CALM      29.86S FOG
AUSTIN         PTCLDY    66  63  88 S6        29.86S
PRESTON        PTCLDY    64  60  88 S5        29.88S
$$
ABBREVIATIONS USED IN REMARKS
   TC - TEMPERATURES IN CELSIUS
  WCI - WIND CHILL INDEX
   HX - HEAT INDEX
  VSB - VISIBILITY
$$




USA.gov is the U.S. government's official web portal to all federal, state and local government web resources and services.